Location: La Savane
(18.0962°N, 63.0646°W)
Time: 17:35:55
(UTC+00:00)

Cosmos 1455 - Pass Details

Date: 29 October 2020
Orbit: 500 x 521 km, 82.5° (Epoch: 24 November)

Event Time Altitude Azimuth Distance (km) Brightness Sun altitude
Rises 22:28:51 0° 188° (S) 2,583 6.0 -11.9°
Reaches altitude 10° 22:30:58 10° 190° (S) 1,704 5.1 -12.4°
Maximum altitude 22:34:41 73° 274° (W) 529 2.4 -13.3°
Drops below altitude 10° 22:38:26 10° 0° (N) 1,720 4.7 -14.2°
Sets 22:40:34 0° 2° (N) 2,610 5.6 -14.7°
